H1 CPF 2 NER 2024 1 22 9 022 01 glonass146 H2 2216101 9146 54377 2024 1 22 0 0 0 2024 1 25 23 45 0 900 1 1 0 0 0 1 H9 10 0 60331 0.00000 0 9636562.659 -20490407.433 -11713282.764 10 0 60331 900.00000 0 9257532.434 -18920161.566 -14363225.270 10 0 60331 1800.00000 0 8966165.252 -17018680.226 -16733729.878 10 0 60331 2700.00000 0 8807606.896 -14829385.384 -18778748.395 10 0 60331 3600.00000 0 8818642.630 -12405441.650 -20458591.772 10 0 60331 4500.00000 0 9025992.291 -9807729.832 -21740697.350 10 0 60331 5400.00000 0 9445045.849 -7102510.166 -22600254.911 10 0 60331 6300.00000 0 10079092.581 -4358872.759 -23020680.138 10 0 60331 7200.00000 0 10919076.077 -1646081.298 -22993927.143 10 0 60331 8100.00000 0 11943885.013 969079.942 -22520634.971 10 0 60331 9000.00000 0 13121167.235 3424846.282 -21610106.032 10 0 60331 9900.00000 0 14408632.742 5666795.536 -20280117.610 10 0 60331 10800.00000 0 15755790.838 7649858.493 -18556570.563 10 0 60331 11700.00000 0 17106048.686 9339934.976 -16472982.316 10 0 60331 12600.00000 0 18399083.422 10715049.956 -14069834.055 10 0 60331 13500.00000 0 19573388.655 11766003.366 -11393784.669 10 0 60331 14400.00000 0 20568888.867 12496488.258 -8496766.492 10 0 60331 15300.00000 0 21329512.343 12922674.022 -5434980.131 10 0 60331 16200.00000 0 21805614.924 13072273.613 -2267807.574 10 0 60331 17100.00000 0 21956153.037 12983135.170 943335.596 10 0 60331 18000.00000 0 21750514.774 12701418.150 4136186.858 10 0 60331 18900.00000 0 21169932.087 12279431.430 7248839.467 10 0 60331 19800.00000 0 20208414.472 11773224.832 10220938.174 10 0 60331 20700.00000 0 18873164.496 11240035.770 12994844.933 10 0 60331 21600.00000 0 17184457.022 10735698.658 15516752.305 10 0 60331 22500.00000 0 15174986.256 10312126.247 17737723.326 10 0 60331 23400.00000 0 12888706.823 10014968.917 19614637.991 10 0 60331 24300.00000 0 10379216.010 9881550.547 21111028.417 10 0 60331 25200.00000 0 7707743.281 9939167.977 22197786.845 10 0 60331 26100.00000 0 4940829.433 10203825.968 22853732.964 10 0 60331 27000.00000 0 2147790.575 10679461.482 23066029.658 10 0 60331 27900.00000 0 -601928.911 11357690.710 22830439.001 10 0 60331 28800.00000 0 -3241405.535 12218090.571 22151413.134 10 0 60331 29700.00000 0 -5708778.818 13229004.077 21042017.677 10 0 60331 30600.00000 0 -7949581.433 14348837.024 19523688.340 10 0 60331 31500.00000 0 -9918760.862 15527792.692 17625824.501 10 0 60331 32400.00000 0 -11582308.710 16709972.633 15385226.645 10 0 60331 33300.00000 0 -12918429.911 17835755.862 12845387.696 10 0 60331 34200.00000 0 -13918203.124 18844356.573 10055651.258 10 0 60331 35100.00000 0 -14585704.920 19676452.475 7070252.713 10 0 60331 36000.00000 0 -14937592.959 20276772.389 3947261.706 10 0 60331 36900.00000 0 -15002166.272 20596533.038 747446.911 10 0 60331 37800.00000 0 -14817943.090 20595621.017 -2466914.213 10 0 60331 38700.00000 0 -14431817.280 20244426.614 -5633256.586 10 0 60331 39600.00000 0 -13896872.545 19525250.784 -8689954.693 10 0 60331 40500.00000 0 -13269948.124 18433224.877 -11577530.771 10 0 60331 41400.00000 0 -12609060.304 16976703.407 -14239819.458 10 0 60331 42300.00000 0 -11970790.038 15177112.743 -16625065.348 10 0 60331 43200.00000 0 -11407748.127 13068261.697 -18686931.612 10 0 60331 44100.00000 0 -10966225.788 10695142.763 -20385399.884 10 0 60331 45000.00000 0 -10684130.181 8112274.241 -21687544.097 10 0 60331 45900.00000 0 -10589292.004 5381652.547 -22568163.727 10 0 60331 46800.00000 0 -10698216.207 2570400.128 -23010264.912 10 0 60331 47700.00000 0 -11015327.944 -251793.169 -23005380.954 10 0 60331 48600.00000 0 -11532744.827 -3015329.226 -22553726.948 10 0 60331 49500.00000 0 -12230584.437 -5653351.431 -21664186.342 10 0 60331 50400.00000 0 -13077793.556 -8104275.902 -20354130.444 10 0 60331 51300.00000 0 -14033463.816 -10314100.228 -18649074.857 10 0 60331 52200.00000 0 -15048578.250 -12238395.226 -16582179.795 10 0 60331 53100.00000 0 -16068115.222 -13843898.400 -14193604.069 10 0 60331 54000.00000 0 -17033421.431 -15109644.458 -11529725.192 10 0 60331 54900.00000 0 -17884754.408 -16027587.411 -8642240.489 10 0 60331 55800.00000 0 -18563887.839 -16602689.887 -5587166.428 10 0 60331 56700.00000 0 -19016670.404 -16852477.382 -2423755.284 10 0 60331 57600.00000 0 -19195430.658 -16806077.426 786650.163 10 0 60331 58500.00000 0 -19061126.856 -16502785.003 3981801.857 10 0 60331 59400.00000 0 -18585151.211 -15990215.290 7099748.886 10 0 60331 60300.00000 0 -17750712.432 -15322121.917 10080034.025 10 0 60331 61200.00000 0 -16553737.921 -14555972.826 12864861.366 10 0 60331 62100.00000 0 -15003257.048 -13750385.834 15400212.729 10 0 60331 63000.00000 0 -13121248.355 -12962531.762 17636891.519 10 0 60331 63900.00000 0 -10941955.957 -12245614.245 19531474.168 10 0 60331 64800.00000 0 -8510702.227 -11646532.063 21047151.095 10 0 60331 65700.00000 0 -5882244.819 -11203822.169 22154441.226 10 0 60331 66600.00000 0 -3118744.887 -10945969.891 22831766.485 10 0 60331 67500.00000 0 -287429.482 -10890157.516 23065875.173 10 0 60331 68400.00000 0 2541956.200 -11041504.207 22852105.948 10 0 60331 69300.00000 0 5299802.121 -11392829.868 22194486.889 10 0 60331 70200.00000 0 7919283.159 -11924953.628 21105667.140 10 0 60331 71100.00000 0 10338896.041 -12607515.372 19606681.628 10 0 60331 72000.00000 0 12504778.502 -13400286.690 17726552.497 10 0 60331 72900.00000 0 14372714.455 -14254916.917 15501733.986 10 0 60331 73800.00000 0 15909741.751 -15117041.371 12975410.603 10 0 60331 74700.00000 0 17095295.392 -15928663.223 10196661.528 10 0 60331 75600.00000 0 17921838.461 -16630708.472 7219507.012 10 0 60331 76500.00000 0 18394954.473 -17165645.700 4101855.209 10 0 60331 77400.00000 0 18532897.625 -17480059.104 904370.230 10 0 60331 78300.00000 0 18365620.445 -17527064.990 -2310715.952 10 0 60331 79200.00000 0 17933320.708 -17268468.255 -5480823.728 10 0 60331 80100.00000 0 17284569.944 -16676566.410 -8544253.332 10 0 60331 81000.00000 0 16474103.854 -15735523.636 -11441394.555 10 0 60331 81900.00000 0 15560369.216 -14442255.734 -14115894.114 10 0 60331 82800.00000 0 14602932.187 -12806787.796 -16515757.060 10 0 60331 83700.00000 0 13659858.494 -10852068.830 -18594360.271 10 0 60331 84600.00000 0 12785176.866 -8613250.706 -20311358.118 10 0 60331 85500.00000 0 12026533.150 -6136461.386 -21633462.840 10 0 60332 0.00000 0 11423134.042 -3477123.863 -22535084.907 10 0 60332 900.00000 0 11004066.396 -697889.381 -22998822.061 10 0 60332 1800.00000 0 10787062.948 2133725.504 -23015787.296 10 0 60332 2700.00000 0 10777764.429 4947904.755 -22585771.977 10 0 60332 3600.00000 0 10969508.910 7675191.968 -21717240.461 10 0 60332 4500.00000 0 11343655.898 10249134.412 -20427157.614 10 0 60332 5400.00000 0 11870430.737 12608802.943 -18740652.995 10 0 60332 6300.00000 0 12510253.087 14701084.330 -16690528.507 10 0 60332 7200.00000 0 13215493.109 16482651.993 -14316619.179 10 0 60332 8100.00000 0 13932581.211 17921534.631 -11665019.414 10 0 60332 9000.00000 0 14604382.438 18998218.885 -8787189.483 10 0 60332 9900.00000 0 15172735.603 19706241.453 -5738959.369 10 0 60332 10800.00000 0 15581050.324 20052247.342 -2579449.011 10 0 60332 11700.00000 0 15776852.688 20055512.998 630074.430 10 0 60332 12600.00000 0 15714172.352 19746955.367 3827380.308 10 0 60332 13500.00000 0 15355670.482 19167669.249 6950476.531 10 0 60332 14400.00000 0 14674418.673 18367054.925 9938806.835 10 0 60332 15300.00000 0 13655253.540 17400615.038 12734420.279 10 0 60332 16200.00000 0 12295649.325 16327513.421 15283090.596 10 0 60332 17100.00000 0 10606070.876 15207998.358 17535364.031 10 0 60332 18000.00000 0 8609790.973 14100798.335 19447515.702 10 0 60332 18900.00000 0 6342178.154 13060599.366 20982396.320 10 0 60332 19800.00000 0 3849483.122 12135709.483 22110153.232 10 0 60332 20700.00000 0 1187172.649 11366008.210 22808812.011 10 0 60332 21600.00000 0 -1582121.438 10781266.883 23064707.440 10 0 60332 22500.00000 0 -4390954.556 10399910.339 22872755.425 10 0 60332 23400.00000 0 -7169626.642 10228272.153 22236560.192 10 0 60332 24300.00000 0 -9848839.466 10260375.057 21168354.125 10 0 60332 25200.00000 0 -12362344.534 10478246.302 19688770.595 10 0 60332 26100.00000 0 -14649472.117 10852755.290 17826453.242 10 0 60332 27000.00000 0 -16657436.546 11344938.822 15617508.337 10 0 60332 27900.00000 0 -18343321.806 11907758.598 13104809.881 10 0 60332 28800.00000 0 -19675664.467 12488217.073 10337170.245 10 0 60332 29700.00000 0 -20635567.634 13029742.322 7368391.971 10 0 60332 30600.00000 0 -21217299.174 13474740.727 4256219.036 10 0 60332 31500.00000 0 -21428349.118 13767208.798 1061208.248 10 0 60332 32400.00000 0 -21288944.135 13855292.569 -2154456.659 10 0 60332 33300.00000 0 -20831040.043 13693685.016 -5328184.282 10 0 60332 34200.00000 0 -20096835.623 13245758.632 -8398203.309 10 0 60332 35100.00000 0 -19136871.459 12485341.604 -11304773.726 10 0 60332 36000.00000 0 -18007795.192 11398061.237 -13991356.868 10 0 60332 36900.00000 0 -16769888.653 9982196.816 -16405720.621 10 0 60332 37800.00000 0 -15484462.270 8249005.079 -18500957.734 10 0 60332 38700.00000 0 -14211227.421 6222503.922 -20236397.206 10 0 60332 39600.00000 0 -13005757.932 3938722.968 -21578391.177 10 0 60332 40500.00000 0 -11917147.669 1444452.033 -22500962.485 10 0 60332 41400.00000 0 -10985962.407 -1204460.447 -22986301.058 10 0 60332 42300.00000 0 -10242571.386 -3945188.301 -23025100.337 10 0 60332 43200.00000 0 -9705927.581 -6710301.455 -22616728.162 10 0 60332 44100.00000 0 -9382846.704 -9430334.458 -21769229.635 10 0 60332 45000.00000 0 -9267813.861 -12036443.520 -20499162.670 10 0 60332 45900.00000 0 -9343324.703 -14463042.482 -18831269.924 10 0 60332 46800.00000 0 -9580745.549 -16650309.183 -16797993.822 10 0 60332 47700.00000 0 -9941655.355 -18546459.106 -14438844.167 10 0 60332 48600.00000 0 -10379612.346 -20109692.962 -11799630.580 10 0 60332 49500.00000 0 -10842270.460 -21309738.356 -8931574.420 10 0 60332 50400.00000 0 -11273756.194 -22128922.476 -5890317.192 10 0 60332 51300.00000 0 -11617205.538 -22562732.245 -2734844.393 10 0 60332 52200.00000 0 -11817354.055 -22619839.585 473654.654 10 0 60332 53100.00000 0 -11823070.853 -22321591.657 3672969.041 10 0 60332 54000.00000 0 -11589729.542 -21700988.202 6801067.932 10 0 60332 54900.00000 0 -11081316.060 -20801189.378 9797298.574 10 0 60332 55800.00000 0 -10272184.163 -19673617.017 12603557.622 10 0 60332 56700.00000 0 -9148384.104 -18375729.066 15165413.377 10 0 60332 57600.00000 0 -7708507.742 -16968560.489 17433157.538 10 0 60332 58500.00000 0 -5964013.428 -15514133.513 19362766.389 10 0 60332 59400.00000 0 -3939015.631 -14072845.451 20916753.220 10 0 60332 60300.00000 0 -1669546.401 -12700943.085 22064895.795 10 0 60332 61200.00000 0 797682.276 -11448189.069 22784825.002 10 0 60332 62100.00000 0 3406965.535 -10355817.624 23062463.404 10 0 60332 63000.00000 0 6095673.698 -9454864.937 22892305.068 10 0 60332 63900.00000 0 8796617.002 -8764944.033 22277530.905 10 0 60332 64800.00000 0 11440610.128 -8293515.514 21229956.697 10 0 60332 65700.00000 0 13959131.090 -8035684.879 19769814.046 10 0 60332 66600.00000 0 16286964.642 -7974535.210 17925367.517 10 0 60332 67500.00000 0 18364720.616 -8081981.500 15732374.463 10 0 60332 68400.00000 0 20141122.379 -8320110.897 13233397.046 10 0 60332 69300.00000 0 21574969.676 -8642952.433 10476979.086 10 0 60332 70200.00000 0 22636693.542 -8998601.427 7516703.267 10 0 60332 71100.00000 0 23309437.819 -9331608.337 4410146.839 10 0 60332 72000.00000 0 23589621.619 -9585530.301 1217756.422 10 0 60332 72900.00000 0 23486959.059 -9705536.361 -1998335.637 10 0 60332 73800.00000 0 23023935.617 -9640954.778 -5175529.452 10 0 60332 74700.00000 0 22234763.601 -9347653.210 -8251985.493 10 0 60332 75600.00000 0 21163861.543 -8790149.538 -11167837.195 10 0 60332 76500.00000 0 19863922.481 -7943362.690 -13866363.584 10 0 60332 77400.00000 0 18393653.655 -6793928.224 -16295098.216 10 0 60332 78300.00000 0 16815283.806 -5341022.138 -18406852.246 10 0 60332 79200.00000 0 15191943.914 -3596657.350 -20160631.535 10 0 60332 80100.00000 0 13585032.123 -1585439.771 -21522430.010 10 0 60332 81000.00000 0 12051673.813 656206.262 -22465884.361 10 0 60332 81900.00000 0 10642383.256 3081311.142 -22972778.026 10 0 60332 82800.00000 0 9399024.333 5634078.832 -23033385.577 10 0 60332 83700.00000 0 8353154.790 8251980.036 -22646651.706 10 0 60332 84600.00000 0 7524822.107 10868132.939 -21820202.258 10 0 60332 85500.00000 0 6921859.944 13413872.935 -20570187.789 10 0 60333 0.00000 0 6539713.066 15821404.943 -18920963.452 10 0 60333 900.00000 0 6361796.368 18026430.064 -16904610.751 10 0 60333 1800.00000 0 6360372.005 19970635.029 -14560312.901 10 0 60333 2700.00000 0 6497905.852 21603946.111 -11933592.900 10 0 60333 3600.00000 0 6728845.919 22886451.405 -9075431.026 10 0 60333 4500.00000 0 7001746.899 23789913.610 -6041277.831 10 0 60333 5400.00000 0 7261650.949 24298810.995 -2889981.631 10 0 60333 6300.00000 0 7452624.079 24410863.874 317349.012 10 0 60333 7200.00000 0 7520341.002 24137025.383 3518525.974 10 0 60333 8100.00000 0 7414609.276 23500937.526 6651482.748 10 0 60333 9000.00000 0 7091726.126 22537875.718 9655473.105 10 0 60333 9900.00000 0 6516568.264 21293226.277 12472244.179 10 0 60333 10800.00000 0 5664326.190 19820560.696 15047161.550 10 0 60333 11700.00000 0 4521809.251 18179387.217 17330264.859 10 0 60333 12600.00000 0 3088265.587 16432673.535 19277233.807 10 0 60333 13500.00000 0 1375681.265 14644243.903 20850246.250 10 0 60333 14400.00000 0 -591455.529 12876158.941 22018712.069 10 0 60333 15300.00000 0 -2776917.129 11186187.199 22759868.861 10 0 60333 16200.00000 0 -5133995.946 9625473.575 23059227.999 10 0 60333 17100.00000 0 -7607210.332 8236501.554 22910862.345 10 0 60333 18000.00000 0 -10134387.537 7051434.093 22317529.672 10 0 60333 18900.00000 0 -12649038.662 6090902.266 21290628.866 10 0 60333 19800.00000 0 -15082928.119 5363292.229 19849988.947 10 0 60333 20700.00000 0 -17368731.556 4864560.370 18023494.094 10 0 60333 21600.00000 0 -19442672.108 4578584.363 15846550.958 10 0 60333 22500.00000 0 -21247025.232 4478035.399 13361407.653 10 0 60333 23400.00000 0 -22732387.318 4525734.748 10616336.915 10 0 60333 24300.00000 0 -23859612.857 4676437.182 7664698.792 10 0 60333 25200.00000 0 -24601338.448 4878965.462 4563900.890 10 0 60333 26100.00000 0 -24943029.180 5078604.897 1374276.655 10 0 60333 27000.00000 0 -24883503.014 5219655.593 -1842095.942 10 0 60333 27900.00000 0 -24434910.894 5248033.097 -5022611.471 10 0 60333 28800.00000 0 -23622173.510 5113805.873 -8105365.073 10 0 60333 29700.00000 0 -22481898.791 4773560.671 -11030366.420 10 0 60333 30600.00000 0 -21060826.370 4192494.249 -13740714.884 10 0 60333 31500.00000 0 -19413865.335 3346141.663 -16183712.148 10 0 60333 32400.00000 0 -17601808.749 2221666.999 -18311889.986 10 0 60333 33300.00000 0 -15688821.835 818661.210 -20083932.977 10 0 60333 34200.00000 0 -13739810.006 -850587.277 -21465478.299 10 0 60333 35100.00000 0 -11817777.466 -2761361.019 -22429777.500 10 0 60333 36000.00000 0 -9981287.043 -4877310.283 -22958208.082 10 0 60333 36900.00000 0 -8282127.126 -7151744.975 -23040625.822 10 0 60333 37800.00000 0 -6763282.426 -9529368.110 -22675551.916 10 0 60333 38700.00000 0 -5457292.129 -11948378.868 -21870192.192 10 0 60333 39600.00000 0 -4385062.589 -14342857.990 -20640288.748 10 0 60333 40500.00000 0 -3555182.455 -16645336.680 -19009807.498 10 0 60333 41400.00000 0 -2963767.101 -18789442.735 -17010467.977 10 0 60333 42300.00000 0 -2594837.186 -20712514.356 -14681124.715 10 0 60333 43200.00000 0 -2421213.827 -22358073.600 -12067012.128 10 0 60333 44100.00000 0 -2405891.498 -23678057.167 -9218867.376 10 0 60333 45000.00000 0 -2503829.823 -24634712.248 -6191947.989 10 0 60333 45900.00000 0 -2664088.050 -25202079.044 -3044963.032 10 0 60333 46800.00000 0 -2832211.706 -25366998.682 161061.775 10 0 60333 47700.00000 0 -2952770.445 -25129604.920 3363963.161 10 0 60333 48600.00000 0 -2971939.788 -24503279.509 6501641.044 10 0 60333 49500.00000 0 -2840017.644 -23514073.328 9513257.840 10 0 60333 50400.00000 0 -2513769.233 -22199617.643 12340413.304 10 0 60333 51300.00000 0 -1958501.212 -20607570.960 14928272.437 10 0 60333 52200.00000 0 -1149777.090 -18793666.219 17226624.915 10 0 60333 53100.00000 0 -74700.978 -16819439.586 19190855.855 10 0 60333 54000.00000 0 1267285.343 -14749735.204 20782809.510 10 0 60333 54900.00000 0 2864126.834 -12650089.488 21971529.498 10 0 60333 55800.00000 0 4691414.245 -10584103.445 22733861.467 10 0 60333 56700.00000 0 6713168.775 -8610911.968 23054906.663 10 0 60333 57600.00000 0 8883121.474 -6782854.984 22928317.488 10 0 60333 58500.00000 0 11146435.875 -5143447.085 22356429.022 10 0 60333 59400.00000 0 13441803.771 -3725729.884 21350223.388 10 0 60333 60300.00000 0 15703828.278 -2551075.593 19929126.868 10 0 60333 61200.00000 0 17865595.957 -1628491.584 18120642.795 10 0 60333 62100.00000 0 19861331.412 -954454.888 15959826.346 10 0 60333 63000.00000 0 21629023.899 -513283.350 13488610.498 10 0 60333 63900.00000 0 23112915.993 -278027.620 10754995.459 10 0 60333 64800.00000 0 24265749.750 -211846.038 7812116.835 10 0 60333 65700.00000 0 25050675.586 -269803.833 4717210.405 10 0 60333 66600.00000 0 25442742.958 -401019.897 1530493.914 10 0 60333 67500.00000 0 25429909.514 -551069.258 -1686011.858 10 0 60333 68400.00000 0 25013525.707 -664538.375 -4869698.970 10 0 60333 69300.00000 0 24208274.123 -687623.598 -7958600.360 10 0 60333 70200.00000 0 23041566.081 -570661.288 -10892605.034 10 0 60333 71100.00000 0 21552421.154 -270481.018 -13614635.704 10 0 60333 72000.00000 0 19789877.276 247519.091 -16071764.966 10 0 60333 72900.00000 0 17810998.959 1007663.755 -18216247.742 10 0 60333 73800.00000 0 15678567.963 2022731.755 -20006449.592 10 0 60333 74700.00000 0 13458553.942 3293181.174 -21407652.916 10 0 60333 75600.00000 0 11217471.416 4806901.792 -22392725.792 10 0 60333 76500.00000 0 9019733.731 6539505.386 -22942641.137 10 0 60333 77400.00000 0 6925114.336 8455142.031 -23046836.951 10 0 60333 78300.00000 0 4986420.632 10507808.452 -22703411.575 10 0 60333 79200.00000 0 3247476.370 12643093.983 -21919151.065 10 0 60333 80100.00000 0 1741495.327 14800291.543 -20709388.894 10 0 60333 81000.00000 0 489912.413 16914785.903 -19097701.303 10 0 60333 81900.00000 0 -498280.863 18920620.153 -17115444.550 10 0 60333 82800.00000 0 -1226670.675 20753133.868 -14801143.199 10 0 60333 83700.00000 0 -1711021.139 22351563.529 -12199741.290 10 0 60333 84600.00000 0 -1978358.956 23661497.325 -9361730.727 10 0 60333 85500.00000 0 -2065582.286 24637082.425 -6342173.579 10 0 60334 0.00000 0 -2017653.468 25242893.017 -3199637.249 10 0 60334 900.00000 0 -1885452.488 25455381.744 4938.827 10 0 60334 1800.00000 0 -1723382.304 25263853.440 3209418.962 10 0 60334 2700.00000 0 -1586827.327 24670921.754 6351672.534 10 0 60334 3600.00000 0 -1529572.538 23692428.699 9370773.609 10 0 60334 4500.00000 0 -1601292.325 22356830.821 12208177.482 10 0 60334 5400.00000 0 -1845215.162 20704077.363 14808851.328 10 0 60334 6300.00000 0 -2296062.899 18784026.862 17122337.440 10 0 60334 7200.00000 0 -2978351.962 16654467.849 19103728.708 10 0 60334 8100.00000 0 -3905128.697 14378825.535 20714537.904 10 0 60334 9000.00000 0 -5077193.044 12023649.388 21923444.230 10 0 60334 9900.00000 0 -6482844.422 9655985.500 22706902.945 10 0 60334 10800.00000 0 -8098162.056 7340742.338 23049606.363 10 0 60334 11700.00000 0 -9887809.766 5138158.799 22944787.244 10 0 60334 12600.00000 0 -11806333.340 3101479.289 22394358.338 10 0 60334 13500.00000 0 -13799898.075 1274932.058 21408884.881 10 0 60334 14400.00000 0 -15808395.490 -307905.434 20007389.774 10 0 60334 15300.00000 0 -17767832.467 -1625286.269 18216994.328 10 0 60334 16200.00000 0 -19612903.928 -2667969.958 16072400.565 10 0 60334 17100.00000 0 -21279641.925 -3439366.472 13615224.172 10 0 60334 18000.00000 0 -22708030.284 -3955142.677 10893190.278 10 0 60334 18900.00000 0 -23844474.857 -4242308.175 7959207.179 10 0 60334 19800.00000 0 -24644025.091 -4337819.614 4870335.745 10 0 60334 20700.00000 0 -25072252.663 -4286763.146 1686674.802 10 0 60334 21600.00000 0 -25106707.263 -4140192.844 -1529815.339 10 0 60334 22500.00000 0 -24737887.382 -3952717.692 -4716527.492 10 0 60334 23400.00000 0 -23969684.516 -3779940.698 -7811435.603 10 0 60334 24300.00000 0 -22819281.660 -3675860.004 -10754311.140 10 0 60334 25200.00000 0 -21316510.225 -3690343.500 -13487903.117 10 0 60334 26100.00000 0 -19502692.576 -3866785.185 -15959057.799 10 0 60334 27000.00000 0 -17429019.217 -4240043.554 -18119755.704 10 0 60334 27900.00000 0 -15154529.240 -4834750.066 -19928045.428 10 0 60334 28800.00000 0 -12743779.181 -5664059.728 -21348856.158 10 0 60334 29700.00000 0 -10264298.282 -6728896.900 -22354673.517 10 0 60334 30600.00000 0 -7783936.606 -8017728.301 -22926066.266 10 0 60334 31500.00000 0 -5368216.554 -9506872.883 -23052054.473 10 0 60334 32400.00000 0 -3077797.687 -11161335.639 -22730312.933 10 0 60334 33300.00000 0 -966159.491 -12936130.508 -21967206.760 10 0 60334 34200.00000 0 922402.635 -14778037.154 -20777659.233 10 0 60334 35100.00000 0 2554386.308 -16627718.356 -19184855.040 10 0 60334 36000.00000 0 3908230.759 -18422109.876 -17219785.036 10 0 60334 36900.00000 0 4974959.108 -20096983.283 -14920641.521 10 0 60334 37800.00000 0 5758289.408 -21589575.128 -12332075.752 10 0 60334 38700.00000 0 6274211.661 -22841173.032 -9504331.919 10 0 60334 39600.00000 0 6550050.172 -23799551.017 -6492274.149 10 0 60334 40500.00000 0 6623051.993 -24421152.570 -3354325.167 10 0 60334 41400.00000 0 6538561.913 -24672930.434 -151336.859 10 0 60334 42300.00000 0 6347861.634 -24533766.242 3054585.539 10 0 60334 43200.00000 0 6105764.746 -23995410.643 6201283.098 10 0 60334 44100.00000 0 5868069.237 -23062904.436 9227743.661 10 0 60334 45000.00000 0 5688975.201 -21754462.816 12075280.053 10 0 60334 45900.00000 0 5618576.780 -20100827.164 14688663.501 10 0 60334 46800.00000 0 5700534.231 -18144110.848 17017190.602 10 0 60334 47700.00000 0 5970024.483 -15936186.535 19015663.521 10 0 60334 48600.00000 0 6452056.884 -13536681.416 20645264.811 10 0 60334 49500.00000 0 7160225.646 -11010662.943 21874310.268 10 0 60334 50400.00000 0 8095952.378 -8426110.454 22678865.484 10 0 60334 51300.00000 0 9248251.653 -5851276.898 23043214.294 10 0 60334 52200.00000 0 10594030.931 -3352049.389 22960169.974 10 0 60334 53100.00000 0 12098913.823 -989417.533 22431222.857 10 0 60334 54000.00000 0 13718553.879 1182845.942 21466520.956 10 0 60334 54900.00000 0 15400385.460 3120196.331 20084683.235 10 0 60334 55800.00000 0 17085739.760 4788936.538 18312448.220 10 0 60334 56700.00000 0 18712238.401 6167377.904 16184163.803 10 0 60334 57600.00000 0 20216364.961 7246494.104 13741127.186 10 0 60334 58500.00000 0 21536106.788 8030041.022 11030786.991 10 0 60334 59400.00000 0 22613555.963 8534138.016 8105822.513 10 0 60334 60300.00000 0 23397359.503 8786328.699 5023117.757 10 0 60334 61200.00000 0 23844914.841 8824161.551 1842650.415 10 0 60334 62100.00000 0 23924217.081 8693351.189 -1373682.111 10 0 60334 63000.00000 0 23615279.138 8445599.169 -4563275.995 10 0 60334 63900.00000 0 22911063.897 8136167.791 -7664048.885 10 0 60334 64800.00000 0 21817888.360 7821311.022 -10615657.398 10 0 60334 65700.00000 0 20355282.197 7555672.721 -13360679.440 10 0 60334 66600.00000 0 18555306.439 7389763.604 -15845737.374 10 0 60334 67500.00000 0 16461360.958 7367624.847 -18022539.548 10 0 60334 68400.00000 0 14126530.980 7524777.963 -19848819.592 10 0 60334 69300.00000 0 11611542.247 7886548.173 -21289155.260 10 0 60334 70200.00000 0 8982410.651 8466832.285 -22315651.270 10 0 60334 71100.00000 0 6307884.622 9267363.125 -22908473.525 10 0 60334 72000.00000 0 3656786.897 10277501.359 -23056225.187 10 0 60334 72900.00000 0 1095365.966 11474563.320 -22756158.207 10 0 60334 73800.00000 0 -1315233.334 12824670.904 -22014217.090 10 0 60334 74700.00000 0 -3521275.910 14284087.766 -20844914.844 10 0 60334 75600.00000 0 -5478424.697 15800985.816 -19271044.089 10 0 60334 76500.00000 0 -7153330.075 17317568.127 -17323229.336 10 0 60334 77400.00000 0 -8524756.001 18772459.545 -15039329.273 10 0 60334 78300.00000 0 -9584197.825 20103265.211 -12463700.663 10 0 60334 79200.00000 0 -10335967.865 21249190.176 -9646337.952 10 0 60334 80100.00000 0 -10796746.883 22153610.698 -6641905.057 10 0 60334 81000.00000 0 -10994621.837 22766489.776 -3508677.831 10 0 60334 81900.00000 0 -10967651.561 23046535.891 -307417.435 10 0 60334 82800.00000 0 -10762021.721 22963014.516 2899803.780 10 0 60334 83700.00000 0 -10429867.386 22497136.418 6050801.330 10 0 60334 84600.00000 0 -10026855.437 21642964.309 9084479.589 10 0 60334 85500.00000 0 -9609628.946 20407799.480 11942011.650 99